This is the latest recevied weather packets stored in our database for station/object KD8TSA. If no packets are shown the sender has not sent any weather packets the latest 10 day(s).
| Time | Temp. | Humidity | Pressure | Rain* | Wind** | Luminosity | Snow |
|---|---|---|---|---|---|---|---|
| 1777420012 | 20.56° C | 78% | 1012.4 hPa | 0 mm | - | 23 W/m² | - |
| 1777419709 | 20.56° C | 78% | 1012.3 hPa | 0 mm | - | 26 W/m² | - |
| 1777419407 | 21.11° C | 77% | 1012.5 hPa | 0 mm | - | 30 W/m² | - |
| 1777419107 | 21.11° C | 77% | 1012.5 hPa | 0 mm | - | 36 W/m² | - |
| 1777418805 | 21.11° C | 77% | 1012.5 hPa | 0 mm | - | 40 W/m² | - |
| 1777418503 | 21.67° C | 76% | 1012.5 hPa | 0 mm | - | 46 W/m² | - |
| 1777418199 | 21.67° C | 75% | 1012.1 hPa | 0 mm | - | 68 W/m² | - |
| 1777417894 | 21.67° C | 74% | 1011.8 hPa | 0 mm | - | 81 W/m² | - |
| 1777417591 | 22.22° C | 73% | 1011.3 hPa | 0 mm | - | 87 W/m² | - |
| 1777417287 | 21.67° C | 72% | 1011.4 hPa | 0 mm | - | 86 W/m² | - |
| 1777416984 | 22.22° C | 71% | 1010.9 hPa | 0 mm | - | 89 W/m² | - |
| 1777416679 | 22.22° C | 72% | 1011.1 hPa | 0 mm | - | 104 W/m² | - |
| 1777416375 | 22.22° C | 72% | 1011.6 hPa | 0 mm | - | 137 W/m² | - |
| 1777416074 | 22.22° C | 72% | 1011.8 hPa | 0 mm | - | 162 W/m² | - |
| 1777415770 | 22.22° C | 73% | 1012 hPa | 0 mm | - | 124 W/m² | - |
| 1777415466 | 22.22° C | 71% | 1012.4 hPa | 0 mm | - | 110 W/m² | - |
| 1777415162 | 22.78° C | 71% | 1012.4 hPa | 0 mm | - | 145 W/m² | - |
| 1777414861 | 22.78° C | 71% | 1012.3 hPa | 0 mm | - | 189 W/m² | - |
| 1777414556 | 22.78° C | 71% | 1012.3 hPa | 0 mm | - | 203 W/m² | - |
| 1777414251 | 22.78° C | 71% | 1012.6 hPa | 0 mm | - | 171 W/m² | - |
| 1777413946 | 22.78° C | 69% | 1012.4 hPa | 0 mm | - | 230 W/m² | - |
| 1777413642 | 22.78° C | 69% | 1012.3 hPa | 0 mm | - | 173 W/m² | - |
| 1777413338 | 23.33° C | 69% | 1012.3 hPa | 0 mm | - | 203 W/m² | - |
| 1777413033 | 23.33° C | 69% | 1012.2 hPa | 0 mm | - | 120 W/m² | - |
| 1777412728 | 23.89° C | 67% | 1012.2 hPa | 0 mm | - | 108 W/m² | - |
* Rain latest hour (hover to see other rain measurements)
** Current wind speed in m/s (hover to see current wind gust speed)